BOX593 BGGH-BIKF

Flight info

Callsign BOX593
Flight time 1h 41m
Altitude 37000
Route EVULO1A EVULO DCT DEVNU DCT GOKIK DCT GIRUG GIRUG4K
Aircraft B77L/H-SDE1E2E3FGHIJ2J3J4J5M1RWXY/LB1D1

Departure

Time 2026-04-29 18:31
Airport Nuuk International Airport (BGGH)

Arrival

Time 2026-04-29 20:12
Airport Keflavik International Airport (BIKF)
Time Latitude Longitude Altitude Speed Heading
2026-04-29 18:17 64.18539 -51.67806 264 ft 0 kts 110°
2026-04-29 18:22 64.18539 -51.67812 264 ft 0 kts 110°
2026-04-29 18:22 64.18543 -51.67838 264 ft 2 kts 100°
2026-04-29 18:23 64.18544 -51.67873 264 ft 2 kts 83°
2026-04-29 18:23 64.18541 -51.67908 264 ft 2 kts 68°
2026-04-29 18:23 64.18533 -51.67939 264 ft 2 kts 52°
2026-04-29 18:23 64.18523 -51.67964 264 ft 2 kts 37°
2026-04-29 18:24 64.18510 -51.67982 264 ft 1 kts 22°
2026-04-29 18:24 64.18507 -51.67986 264 ft 0 kts 19°
2026-04-29 18:26 64.18515 -51.67979 264 ft 4 kts 19°
2026-04-29 18:26 64.18567 -51.67933 264 ft 11 kts 24°
2026-04-29 18:26 64.18622 -51.67950 264 ft 8 kts 289°
2026-04-29 18:26 64.18633 -51.68027 264 ft 0 kts 288°
2026-04-29 18:28 64.18634 -51.68033 264 ft 4 kts 288°
2026-04-29 18:29 64.18634 -51.68254 264 ft 20 kts 224°
2026-04-29 18:29 64.18538 -51.68345 265 ft 23 kts 198°
2026-04-29 18:29 64.18331 -51.68501 264 ft 22 kts 197°
2026-04-29 18:29 64.18195 -51.68543 264 ft 13 kts 247°
2026-04-29 18:30 64.18263 -51.68551 264 ft 10 kts 19°
2026-04-29 18:30 64.18362 -51.68481 264 ft 30 kts 17°
2026-04-29 18:30 64.18851 -51.68109 265 ft 115 kts 18°
2026-04-29 18:30 64.19846 -51.67356 508 ft 166 kts 18°
2026-04-29 18:31 64.20952 -51.66682 1586 ft 166 kts
2026-04-29 18:31 64.22056 -51.67467 2252 ft 179 kts 321°
2026-04-29 18:31 64.22785 -51.69997 2786 ft 199 kts 288°
2026-04-29 18:31 64.22875 -51.73324 3382 ft 216 kts 256°
2026-04-29 18:32 64.22144 -51.76458 4014 ft 231 kts 222°
2026-04-29 18:32 64.18946 -51.78281 5393 ft 257 kts 171°
2026-04-29 18:32 64.17151 -51.77672 6406 ft 262 kts 170°
2026-04-29 18:33 64.15318 -51.77012 7418 ft 266 kts 170°
2026-04-29 18:33 64.13453 -51.76270 8331 ft 272 kts 163°
2026-04-29 18:33 64.11710 -51.74494 9272 ft 275 kts 151°
2026-04-29 18:33 64.10011 -51.72227 10138 ft 282 kts 149°
2026-04-29 18:34 64.08340 -51.69504 10719 ft 299 kts 140°
2026-04-29 18:34 64.07318 -51.67267 11061 ft 311 kts 133°
2026-04-29 18:34 64.05553 -51.61605 11749 ft 337 kts 118°
2026-04-29 18:34 64.04643 -51.56514 12282 ft 355 kts 106°
2026-04-29 18:35 64.04197 -51.50795 12849 ft 372 kts 93°
2026-04-29 18:35 64.04330 -51.44632 13498 ft 387 kts 79°
2026-04-29 18:35 64.05087 -51.38641 14421 ft 394 kts 66°
2026-04-29 18:35 64.06271 -51.32906 15468 ft 398 kts 63°
2026-04-29 18:36 64.07431 -51.26996 16244 ft 410 kts 66°
2026-04-29 18:36 64.08508 -51.20809 16988 ft 421 kts 65°
2026-04-29 18:36 64.09921 -51.14808 17800 ft 429 kts 56°
2026-04-29 18:36 64.11546 -51.08964 18586 ft 438 kts 55°
2026-04-29 18:37 64.13197 -51.02985 19514 ft 443 kts 55°
2026-04-29 18:37 64.14864 -50.96856 20275 ft 451 kts 54°
2026-04-29 18:37 64.16564 -50.90537 20882 ft 464 kts 55°
2026-04-29 18:37 64.18270 -50.84134 21621 ft 472 kts 55°
2026-04-29 18:38 64.20028 -50.77488 22281 ft 482 kts 54°
2026-04-29 18:38 64.21351 -50.72462 22884 ft 486 kts 54°
2026-04-29 18:38 64.23090 -50.65818 23629 ft 490 kts 54°
2026-04-29 18:38 64.24905 -50.58864 24263 ft 498 kts 54°
2026-04-29 18:39 64.26725 -50.51860 24762 ft 508 kts 54°
2026-04-29 18:39 64.28583 -50.44679 25376 ft 515 kts 54°
2026-04-29 18:39 64.30414 -50.37573 26063 ft 519 kts 54°
2026-04-29 18:39 64.32299 -50.30233 26734 ft 525 kts 55°
2026-04-29 18:40 64.34171 -50.22916 27322 ft 532 kts 54°
2026-04-29 18:40 64.36105 -50.15336 27888 ft 539 kts 54°
2026-04-29 18:40 64.37843 -50.07523 28450 ft 552 kts 63°
2026-04-29 18:40 64.39130 -49.98923 29156 ft 560 kts 72°
2026-04-29 18:41 64.41683 -49.72047 31305 ft 566 kts 74°
2026-04-29 18:41 64.42499 -49.63029 32106 ft 561 kts 75°
2026-04-29 18:42 64.43289 -49.54227 33051 ft 550 kts 75°
2026-04-29 18:42 64.44074 -49.45435 33924 ft 542 kts 75°
2026-04-29 18:42 64.44830 -49.36901 34704 ft 535 kts 75°
2026-04-29 18:42 64.45594 -49.28231 35337 ft 533 kts 76°
2026-04-29 18:43 64.46335 -49.19779 35819 ft 533 kts 76°
2026-04-29 18:43 64.47068 -49.11348 36353 ft 531 kts 76°
2026-04-29 18:43 64.47809 -49.02768 36684 ft 531 kts 76°
2026-04-29 18:43 64.48537 -48.94262 36740 ft 529 kts 76°
2026-04-29 18:44 64.49979 -48.77264 36727 ft 526 kts 76°
2026-04-29 18:44 64.51390 -48.60363 36709 ft 526 kts 76°
2026-04-29 18:45 64.52778 -48.43506 36687 ft 527 kts 76°
2026-04-29 18:45 64.54156 -48.26511 36651 ft 526 kts 77°
2026-04-29 18:46 64.55505 -48.09607 36616 ft 526 kts 77°
2026-04-29 18:46 64.56842 -47.92604 36599 ft 524 kts 77°
2026-04-29 18:47 64.58157 -47.75623 36598 ft 525 kts 77°
2026-04-29 18:47 64.59448 -47.58655 36598 ft 523 kts 77°
2026-04-29 18:48 64.60577 -47.43621 36597 ft 525 kts 77°
2026-04-29 18:48 64.61831 -47.26642 36586 ft 523 kts 78°
2026-04-29 18:49 64.63061 -47.09716 36594 ft 523 kts 78°
2026-04-29 18:49 64.64263 -46.92889 36590 ft 523 kts 78°
2026-04-29 18:50 64.65458 -46.75873 36590 ft 522 kts 78°
2026-04-29 18:50 64.66623 -46.59000 36590 ft 522 kts 78°
2026-04-29 18:51 64.67770 -46.42086 36585 ft 523 kts 78°
2026-04-29 18:51 64.68909 -46.24999 36581 ft 522 kts 79°
2026-04-29 18:52 64.70020 -46.08018 36574 ft 521 kts 79°
2026-04-29 18:52 64.71107 -45.91105 36573 ft 520 kts 79°
2026-04-29 18:53 64.72176 -45.74140 36566 ft 520 kts 79°
2026-04-29 18:53 64.73228 -45.57147 36560 ft 520 kts 79°
2026-04-29 18:54 64.74256 -45.40194 36558 ft 519 kts 79°
2026-04-29 18:54 64.75268 -45.23184 36549 ft 521 kts 81°
2026-04-29 18:55 64.76266 -45.06044 36545 ft 519 kts 81°
2026-04-29 18:55 64.77238 -44.89041 36540 ft 522 kts 81°
2026-04-29 18:56 64.78186 -44.72065 36545 ft 519 kts 81°
2026-04-29 18:56 64.79113 -44.55138 36531 ft 519 kts 81°
2026-04-29 18:57 64.80031 -44.37997 36532 ft 519 kts 81°
2026-04-29 18:57 64.80917 -44.21073 36524 ft 518 kts 82°
2026-04-29 18:58 64.81679 -44.06205 36536 ft 518 kts 82°
2026-04-29 18:58 64.82534 -43.89164 36529 ft 517 kts 81°
2026-04-29 18:59 64.83371 -43.72077 36544 ft 519 kts 82°
2026-04-29 18:59 64.84184 -43.55056 36549 ft 519 kts 82°
2026-04-29 19:00 64.84975 -43.38116 36561 ft 518 kts 82°
2026-04-29 19:00 64.85757 -43.20919 36555 ft 518 kts 83°
2026-04-29 19:01 64.86506 -43.04006 36566 ft 518 kts 83°
2026-04-29 19:01 64.87246 -42.86842 36555 ft 516 kts 83°
2026-04-29 19:02 64.87843 -42.72652 36545 ft 517 kts 83°
2026-04-29 19:02 64.88656 -42.52767 36546 ft 517 kts 83°
2026-04-29 19:03 64.89333 -42.35690 36516 ft 516 kts 83°
2026-04-29 19:03 64.89992 -42.18543 36515 ft 518 kts 83°
2026-04-29 19:04 64.90629 -42.01468 36534 ft 518 kts 83°
2026-04-29 19:04 64.91248 -41.84327 36616 ft 519 kts 84°
2026-04-29 19:05 64.91848 -41.67178 36626 ft 517 kts 83°
2026-04-29 19:05 64.92426 -41.50060 36665 ft 518 kts 83°
2026-04-29 19:06 64.92985 -41.32948 36664 ft 517 kts 84°
2026-04-29 19:07 64.93788 -41.07207 36692 ft 515 kts 85°
2026-04-29 19:07 64.94299 -40.90018 36730 ft 516 kts 84°
2026-04-29 19:08 64.94727 -40.75098 36740 ft 514 kts 85°
2026-04-29 19:08 64.95200 -40.57943 36741 ft 516 kts 84°
2026-04-29 19:09 64.95651 -40.40855 36723 ft 517 kts 84°
2026-04-29 19:09 64.96088 -40.23589 36716 ft 516 kts 86°
2026-04-29 19:10 64.96501 -40.06428 36710 ft 518 kts 85°
2026-04-29 19:10 64.96896 -39.89230 36691 ft 518 kts 85°
2026-04-29 19:11 64.97271 -39.71977 36679 ft 518 kts 86°
2026-04-29 19:11 64.97626 -39.54783 36676 ft 516 kts 86°
2026-04-29 19:12 64.97959 -39.37643 36672 ft 514 kts 85°
2026-04-29 19:12 64.98273 -39.20533 36665 ft 515 kts 86°
2026-04-29 19:13 64.98563 -39.03689 36677 ft 515 kts 87°
2026-04-29 19:13 64.98837 -38.86545 36660 ft 513 kts 86°
2026-04-29 19:14 64.99092 -38.69433 36660 ft 516 kts 87°
2026-04-29 19:14 64.99328 -38.52298 36657 ft 515 kts 87°
2026-04-29 19:15 64.99544 -38.35122 36651 ft 515 kts 87°
2026-04-29 19:15 64.99741 -38.17906 36649 ft 515 kts 88°
2026-04-29 19:16 64.99918 -38.00746 36653 ft 515 kts 88°
2026-04-29 19:16 65.00075 -37.83489 36655 ft 516 kts 88°
2026-04-29 19:17 65.00213 -37.66275 36663 ft 515 kts 88°
2026-04-29 19:17 65.00330 -37.49243 36654 ft 515 kts 88°
2026-04-29 19:18 65.00418 -37.33876 36651 ft 514 kts 89°
2026-04-29 19:18 65.00498 -37.16750 36640 ft 513 kts 89°
2026-04-29 19:19 65.00558 -36.99705 36642 ft 513 kts 89°
2026-04-29 19:19 65.00599 -36.82572 36643 ft 513 kts 89°
2026-04-29 19:20 65.00620 -36.65415 36642 ft 513 kts 89°
2026-04-29 19:20 65.00622 -36.48424 36644 ft 513 kts 89°
2026-04-29 19:21 65.00604 -36.31278 36645 ft 513 kts 90°
2026-04-29 19:21 65.00567 -36.14156 36642 ft 513 kts 90°
2026-04-29 19:22 65.00510 -35.96996 36639 ft 514 kts 90°
2026-04-29 19:22 65.00195 -35.79993 36641 ft 513 kts 93°
2026-04-29 19:23 64.99749 -35.62904 36646 ft 512 kts 94°
2026-04-29 19:23 64.99269 -35.45795 36645 ft 511 kts 94°
2026-04-29 19:24 64.98768 -35.28858 36646 ft 511 kts 95°
2026-04-29 19:24 64.98242 -35.11896 36636 ft 513 kts 95°
2026-04-29 19:25 64.97692 -34.94844 36641 ft 511 kts 95°
2026-04-29 19:25 64.97127 -34.77944 36643 ft 511 kts 95°
2026-04-29 19:26 64.96539 -34.60981 36644 ft 510 kts 95°
2026-04-29 19:26 64.95934 -34.44079 36647 ft 510 kts 95°
2026-04-29 19:27 64.95313 -34.27274 36642 ft 510 kts 96°
2026-04-29 19:27 64.94746 -34.12363 36645 ft 510 kts 96°
2026-04-29 19:28 64.94080 -33.95370 36656 ft 509 kts 96°
2026-04-29 19:28 64.93404 -33.78576 36666 ft 509 kts 96°
2026-04-29 19:29 64.92705 -33.61722 36668 ft 509 kts 96°
2026-04-29 19:29 64.91992 -33.44970 36671 ft 509 kts 96°
2026-04-29 19:30 64.91254 -33.28079 36671 ft 509 kts 97°
2026-04-29 19:30 64.90500 -33.11298 36671 ft 509 kts 97°
2026-04-29 19:31 64.89732 -32.94619 36675 ft 507 kts 97°
2026-04-29 19:31 64.88938 -32.77796 36674 ft 506 kts 97°
2026-04-29 19:32 64.88134 -32.61151 36680 ft 507 kts 97°
2026-04-29 19:32 64.87307 -32.44450 36685 ft 508 kts 97°
2026-04-29 19:33 64.86462 -32.27747 36683 ft 507 kts 98°
2026-04-29 19:33 64.85595 -32.11019 36686 ft 508 kts 98°
2026-04-29 19:34 64.84716 -31.94421 36695 ft 507 kts 98°
2026-04-29 19:34 64.83813 -31.77722 36702 ft 507 kts 98°
2026-04-29 19:35 64.82890 -31.61018 36700 ft 506 kts 98°
2026-04-29 19:35 64.81958 -31.44500 36707 ft 507 kts 98°
2026-04-29 19:36 64.81005 -31.27942 36705 ft 506 kts 99°
2026-04-29 19:36 64.80032 -31.11381 36710 ft 506 kts 100°
2026-04-29 19:37 64.79041 -30.94816 36711 ft 505 kts 100°
2026-04-29 19:37 64.78149 -30.80181 36715 ft 506 kts 100°
2026-04-29 19:38 64.77128 -30.63736 36715 ft 504 kts 100°
2026-04-29 19:38 64.76086 -30.47242 36718 ft 505 kts 100°
2026-04-29 19:39 64.75021 -30.30707 36721 ft 504 kts 101°
2026-04-29 19:39 64.73944 -30.14273 36730 ft 504 kts 101°
2026-04-29 19:40 64.72848 -29.97837 36735 ft 504 kts 101°
2026-04-29 19:40 64.71738 -29.81490 36739 ft 504 kts 101°
2026-04-29 19:41 64.70606 -29.65076 36741 ft 506 kts 102°
2026-04-29 19:41 64.69453 -29.48645 36740 ft 505 kts 102°
2026-04-29 19:42 64.68278 -29.32185 36741 ft 505 kts 102°
2026-04-29 19:42 64.67091 -29.15811 36739 ft 504 kts 103°
2026-04-29 19:43 64.65883 -28.99424 36738 ft 504 kts 103°
2026-04-29 19:43 64.64661 -28.83087 36744 ft 503 kts 103°
2026-04-29 19:44 64.63424 -28.66823 36750 ft 503 kts 103°
2026-04-29 19:44 64.62165 -28.50518 36754 ft 504 kts 103°
2026-04-29 19:45 64.60900 -28.34379 36758 ft 503 kts 104°
2026-04-29 19:45 64.59604 -28.18084 36759 ft 502 kts 104°
2026-04-29 19:46 64.58318 -28.02144 36763 ft 503 kts 104°
2026-04-29 19:46 64.56990 -27.85928 36761 ft 502 kts 104°
2026-04-29 19:47 64.55645 -27.69739 36766 ft 503 kts 104°
2026-04-29 19:47 64.54438 -27.55392 36767 ft 503 kts 104°
2026-04-29 19:48 64.53062 -27.39254 36767 ft 503 kts 104°
2026-04-29 19:48 64.51681 -27.23278 36764 ft 502 kts 105°
2026-04-29 19:49 64.50093 -27.07338 36764 ft 499 kts 113°
2026-04-29 19:49 64.47657 -26.92090 36770 ft 496 kts 115°
2026-04-29 19:50 64.45141 -26.77032 36783 ft 497 kts 116°
2026-04-29 19:50 64.42600 -26.62140 36793 ft 490 kts 116°
2026-04-29 19:51 64.40005 -26.47184 36799 ft 497 kts 116°
2026-04-29 19:51 64.37395 -26.32291 36803 ft 495 kts 117°
2026-04-29 19:52 64.34776 -26.17490 36800 ft 494 kts 117°
2026-04-29 19:52 64.32172 -26.02914 36799 ft 499 kts 118°
2026-04-29 19:52 64.30794 -25.95259 36799 ft 510 kts 118°
2026-04-29 19:53 64.29399 -25.87543 36806 ft 521 kts 118°
2026-04-29 19:53 64.26533 -25.71767 36806 ft 537 kts 117°
2026-04-29 19:54 64.22122 -25.47693 36810 ft 540 kts 117°
2026-04-29 19:54 64.19183 -25.31808 36815 ft 537 kts 118°
2026-04-29 19:55 64.16191 -25.15786 36832 ft 537 kts 119°
2026-04-29 19:55 64.13286 -25.00344 36828 ft 537 kts 119°
2026-04-29 19:56 64.10959 -24.83726 36830 ft 548 kts 104°
2026-04-29 19:56 64.10532 -24.66163 36272 ft 543 kts 94°
2026-04-29 19:57 64.10556 -24.57507 35552 ft 545 kts 94°
2026-04-29 19:57 64.10562 -24.53627 35140 ft 548 kts 95°
2026-04-29 19:57 64.10560 -24.42022 33830 ft 554 kts 95°
2026-04-29 19:57 64.10539 -24.32900 32910 ft 556 kts 97°
2026-04-29 19:58 64.10509 -24.23964 32301 ft 550 kts 97°
2026-04-29 19:58 64.10471 -24.15238 31908 ft 542 kts 98°
2026-04-29 19:58 64.10422 -24.06532 31264 ft 539 kts 98°
2026-04-29 19:58 64.10362 -23.97808 30255 ft 546 kts 99°
2026-04-29 19:59 64.10293 -23.89019 29271 ft 548 kts 99°
2026-04-29 19:59 64.10221 -23.80538 28210 ft 550 kts 99°
2026-04-29 19:59 64.10139 -23.71666 27073 ft 549 kts 99°
2026-04-29 19:59 64.10056 -23.62933 26176 ft 542 kts 99°
2026-04-29 20:00 64.09972 -23.54350 25236 ft 526 kts 99°
2026-04-29 20:00 64.09884 -23.46018 24056 ft 517 kts 99°
2026-04-29 20:00 64.09789 -23.37826 22690 ft 510 kts 99°
2026-04-29 20:00 64.09689 -23.29658 21440 ft 500 kts 100°
2026-04-29 20:01 64.09586 -23.21660 20244 ft 489 kts 100°
2026-04-29 20:01 64.09483 -23.13914 19072 ft 478 kts 99°
2026-04-29 20:01 64.09392 -23.06376 17930 ft 468 kts 98°
2026-04-29 20:01 64.09333 -22.98896 16786 ft 459 kts 98°
2026-04-29 20:02 64.09274 -22.91662 15671 ft 449 kts 97°
2026-04-29 20:02 64.09211 -22.84578 14511 ft 441 kts 97°
2026-04-29 20:02 64.09145 -22.77552 13401 ft 432 kts 97°
2026-04-29 20:02 64.09099 -22.72980 12675 ft 427 kts 97°
2026-04-29 20:03 64.09000 -22.64082 11438 ft 410 kts 97°
2026-04-29 20:03 64.08917 -22.57539 10571 ft 398 kts 97°
2026-04-29 20:03 64.08824 -22.51218 9632 ft 389 kts 97°
2026-04-29 20:03 64.08719 -22.45100 8657 ft 382 kts 97°
2026-04-29 20:04 64.08606 -22.39102 7895 ft 370 kts 97°
2026-04-29 20:04 64.08495 -22.33273 7369 ft 352 kts 98°
2026-04-29 20:04 64.08391 -22.27802 6954 ft 334 kts 98°
2026-04-29 20:04 64.08292 -22.22540 6595 ft 317 kts 98°
2026-04-29 20:05 64.07891 -22.17788 6293 ft 290 kts 121°
2026-04-29 20:05 64.06786 -22.14128 5997 ft 262 kts 144°
2026-04-29 20:05 64.05315 -22.11965 5743 ft 238 kts 165°
2026-04-29 20:05 64.03771 -22.11190 5565 ft 216 kts 182°
2026-04-29 20:06 64.02321 -22.11542 5401 ft 197 kts 198°
2026-04-29 20:06 64.01051 -22.12769 5072 ft 193 kts 213°
2026-04-29 20:06 64.00091 -22.14841 4728 ft 189 kts 239°
2026-04-29 20:06 63.99527 -22.17567 4425 ft 184 kts 242°
2026-04-29 20:07 63.99017 -22.20010 4140 ft 173 kts 238°
2026-04-29 20:07 63.98583 -22.21938 3908 ft 166 kts 246°
2026-04-29 20:07 63.98423 -22.24544 3654 ft 159 kts 262°
2026-04-29 20:07 63.98445 -22.26984 3395 ft 146 kts 263°
2026-04-29 20:08 63.98454 -22.29322 3163 ft 154 kts 263°
2026-04-29 20:08 63.98458 -22.31007 2978 ft 161 kts 263°
2026-04-29 20:08 63.98471 -22.34323 2617 ft 146 kts 263°
2026-04-29 20:08 63.98473 -22.36589 2385 ft 139 kts 262°
2026-04-29 20:09 63.98477 -22.38810 2158 ft 137 kts 262°
2026-04-29 20:09 63.98481 -22.40992 1940 ft 136 kts 263°
2026-04-29 20:09 63.98484 -22.43165 1722 ft 135 kts 262°
2026-04-29 20:09 63.98488 -22.45321 1509 ft 135 kts 262°
2026-04-29 20:10 63.98490 -22.47490 1292 ft 135 kts 263°
2026-04-29 20:10 63.98493 -22.49668 1085 ft 136 kts 263°
2026-04-29 20:10 63.98495 -22.51846 886 ft 137 kts 263°
2026-04-29 20:10 63.98497 -22.54058 685 ft 138 kts 263°
2026-04-29 20:11 63.98499 -22.56295 471 ft 138 kts 264°
2026-04-29 20:11 63.98498 -22.58508 302 ft 140 kts 265°
2026-04-29 20:11 63.98504 -22.60718 166 ft 127 kts 264°
2026-04-29 20:11 63.98500 -22.62441 146 ft 86 kts 272°
2026-04-29 20:12 63.98512 -22.63460 136 ft 41 kts 279°
2026-04-29 20:12 63.98589 -22.63968 132 ft 28 kts 298°
2026-04-29 20:12 63.98750 -22.64162 130 ft 27 kts
2026-04-29 20:12 63.98801 -22.64161 130 ft 0 kts
2026-04-29 20:13 63.98809 -22.64161 130 ft 1 kts
2026-04-29 20:13 63.98824 -22.64161 129 ft 2 kts
2026-04-29 20:14 63.98839 -22.64142 130 ft 4 kts 59°
2026-04-29 20:14 63.98853 -22.64043 132 ft 8 kts 85°
2026-04-29 20:14 63.98855 -22.63907 135 ft 7 kts 90°